{"data":{"norad_id":51807,"intl_designator":"2022-017AR","name":"STARLINK-3606","alt_names":[],"object_type":"PAYLOAD","status":"ACTIVE","operator":null,"country":"US","launch_date":"2022-02-25","launch_site_code":"AFWTR","launch_vehicle":null,"mission":null,"orbit_class":"UNKNOWN","rcs_meters":null,"size_class":null,"mass_kg":null,"dimensions":null,"purposes":["comms"],"wikipedia_slug":null,"has_3d_model":false,"image_url":null,"decayed_at":null,"tle_current":{"epoch":"2026-05-25T00:20:13.862112Z","epoch_age_seconds":67783,"freshness":"FRESH","line1":"1 51807U 22017AR  26145.01404933  .00003441  00000+0  23427-3 0  9997","line2":"2 51807  53.2130 356.4868 0001318  87.9240 272.1903 15.08821319235631","mean_motion":15.08821319,"eccentricity":0.0001318,"inclination_deg":53.213,"raan_deg":356.4868,"arg_perigee_deg":87.924,"mean_anomaly_deg":272.1903,"bstar":0.00023427,"rev_number":23563,"period_min":95.438736308047,"perigee_km":538.88870573563,"apogee_km":540.71227405796,"semimajor_km":6917.9374898968,"source":"CELESTRAK","updated_at":"2026-05-25T13:38:16.957264Z"}}}